Weather History for Thermopolis, WY

Change the Weather History Date:

Wednesday, October 16, 2013

  Actual Average (KWRL) Record (KWRL)
Temperature  
Mean Temperature 30 °F 46 °F  
Max Temperature 35 °F 60 °F 86 °F (1991)
Min Temperature 26 °F 31 °F 17 °F (1992)
Degree Days  
Heating Degree Days 34 19  
Month to date heating degree days 265  
Since 1 July heating degree days 522  
Cooling Degree Days 0 0  
Month to date cooling degree days 0  
Year to date cooling degree days 535  
Moisture  
Dew Point 22 °F    
Average Humidity 69    
Maximum Humidity 93    
Minimum Humidity 35    
Precipitation  
Precipitation 0.00 in 0.02 in 0.64 in (1998)
Month to date precipitation 0.45  
Year to date precipitation 6.75  
Sea Level Pressure  
Sea Level Pressure 30.16 in    
Wind  
Wind Speed 10 mph (SSW)    
Max Wind Speed 24 mph    
Max Gust Speed -    
Visibility 10 miles    
Events      
T = Trace of Precipitation, MM = Missing Value Source: NWS Daily Summary

Daily Weather History Graph

Daily Weather History Graph

Search for Another Location

Airport:

Trip Planner

Search our weather history database for the weather conditions in past years. The results will help you decide how hot, cold, wet, or windy it might be!

Date:

Astronomy

Oct. 16, 2013 Rise Set
Actual Time 7:28 AM MDT 6:27 PM MDT
Civil Twilight 6:59 AM MDT 6:56 PM MDT
Nautical Twilight 6:26 AM MDT 7:29 PM MDT
Astronomical Twilight 5:53 AM MDT 8:02 PM MDT
Moon 5:11 PM MDT (10/16) 4:56 AM MDT (10/16)
Length of Visible Light 11h 56m
Length of Day
10h 59m
Waxing Gibbous, 94% of the Moon is Illuminated
Oct 16
Waxing Gibbous
Oct 18
Full
Oct 26
Last Quarter
Nov 3
New
Nov 9
First Quarter

Hourly Weather History & Observations

Time (MDT) Temp. Windchill Dew Point Humidity Pressure Visibility Wind Dir Wind Speed Gust Speed Precip Events Conditions
12:15 AM 26.6 °F 19.1 °F 21.2 °F 80% 30.23 in - SSE 6.9 mph - N/A   Unknown
12:35 AM 26.6 °F 17.5 °F 21.2 °F 80% 30.22 in - South 9.2 mph - N/A   Clear
12:55 AM 26.6 °F 14.7 °F 23.0 °F 86% 30.21 in - SSW 15.0 mph - N/A   Unknown
1:15 AM 26.6 °F 15.7 °F 23.0 °F 86% 30.21 in - SSW 12.7 mph - N/A   Unknown
1:35 AM 28.4 °F 18.0 °F 23.0 °F 80% 30.21 in - SSW 12.7 mph - N/A   Clear
1:55 AM 28.4 °F 18.5 °F 23.0 °F 80% 30.21 in - SSW 11.5 mph - N/A   Clear
2:15 AM 30.2 °F 21.3 °F 23.0 °F 75% 30.21 in - SSW 10.4 mph - N/A   Clear
2:35 AM 30.2 °F 20.8 °F 21.2 °F 69% 30.21 in - SSW 11.5 mph - N/A   Clear
2:55 AM 30.2 °F 20.8 °F 23.0 °F 75% 30.21 in - SSW 11.5 mph - N/A   Clear
3:15 AM 28.4 °F 18.5 °F 23.0 °F 80% 30.20 in - SSW 11.5 mph - N/A   Clear
3:35 AM 30.2 °F 21.9 °F 21.2 °F 69% 30.19 in - SSW 9.2 mph - N/A   Clear
3:55 AM 30.2 °F 22.6 °F 21.2 °F 69% 30.18 in - SSW 8.1 mph - N/A   Clear
4:15 AM 32.0 °F 24.8 °F 19.4 °F 60% 30.18 in - SSW 8.1 mph - N/A   Clear
4:35 AM 32.0 °F 24.8 °F 14.0 °F 48% 30.18 in - SSW 8.1 mph - N/A   Clear
4:55 AM 32.0 °F 25.6 °F 14.0 °F 48% 30.18 in - South 6.9 mph - N/A   Clear
5:15 AM 32.0 °F 24.2 °F 12.2 °F 44% 30.18 in - SSW 9.2 mph - N/A   Clear
5:35 AM 32.0 °F 25.6 °F 12.2 °F 44% 30.16 in - South 6.9 mph - N/A   Clear
5:55 AM 33.8 °F 25.8 °F 10.4 °F 38% 30.16 in - South 10.4 mph - N/A   Clear
6:15 AM 32.0 °F 25.6 °F 12.2 °F 44% 30.16 in - South 6.9 mph - N/A   Clear
6:35 AM 32.0 °F 24.8 °F 15.8 °F 51% 30.15 in - South 8.1 mph - N/A   Clear
6:55 AM 32.0 °F 25.6 °F 14.0 °F 48% 30.15 in - South 6.9 mph - N/A   Clear
7:15 AM 32.0 °F 25.6 °F 14.0 °F 48% 30.15 in - SSE 6.9 mph - N/A   Clear
7:35 AM 32.0 °F 24.8 °F 15.8 °F 51% 30.15 in - South 8.1 mph - N/A   Clear
7:55 AM 32.0 °F 27.5 °F 21.2 °F 64% 30.15 in - SSE 4.6 mph - N/A   Clear
8:15 AM 32.0 °F 27.5 °F 21.2 °F 64% 30.15 in - SSE 4.6 mph - N/A   Clear
8:35 AM 32.0 °F 26.4 °F 19.4 °F 60% 30.16 in - SSE 5.8 mph - N/A   Clear
8:55 AM 32.0 °F 27.5 °F 19.4 °F 60% 30.16 in - SE 4.6 mph - N/A   Clear
9:15 AM 32.0 °F 28.7 °F 17.6 °F 55% 30.16 in - SSE 3.5 mph - N/A   Clear
9:35 AM 32.0 °F 28.7 °F 17.6 °F 55% 30.16 in - SSE 3.5 mph - N/A   Clear
9:55 AM 30.2 °F 24.3 °F 21.2 °F 69% 30.16 in - SE 5.8 mph - N/A   Clear
10:15 AM 32.0 °F 24.8 °F 17.6 °F 55% 30.16 in - SE 8.1 mph - N/A   Clear
10:35 AM 32.0 °F 24.8 °F 21.2 °F 64% 30.16 in - SE 8.1 mph - N/A   Clear
10:55 AM 30.2 °F 22.6 °F 24.8 °F 80% 30.16 in - SE 8.1 mph - N/A   Clear
11:15 AM 30.2 °F 23.4 °F 26.6 °F 86% 30.15 in - SE 6.9 mph - N/A   Unknown
11:35 AM 30.2 °F 23.4 °F 26.6 °F 86% 30.15 in - SE 6.9 mph - N/A   Unknown
11:55 AM 30.2 °F 21.9 °F 24.8 °F 80% 30.15 in - SE 9.2 mph - N/A   Clear
12:15 PM 32.0 °F 23.6 °F 21.2 °F 64% 30.15 in - SE 10.4 mph - N/A   Clear
12:35 PM 32.0 °F 24.2 °F 26.6 °F 80% 30.14 in - SE 9.2 mph - N/A   Clear
12:55 PM 32.0 °F 23.6 °F 26.6 °F 80% 30.14 in - SE 10.4 mph - N/A   Clear
1:15 PM 32.0 °F 24.2 °F 23.0 °F 69% 30.13 in - SE 9.2 mph - N/A   Clear
1:35 PM 32.0 °F 26.4 °F 26.6 °F 80% 30.13 in - SE 5.8 mph - N/A   Clear
1:55 PM 32.0 °F 25.6 °F 26.6 °F 80% 30.12 in - SE 6.9 mph - N/A   Clear
2:15 PM 32.0 °F 26.4 °F 26.6 °F 80% 30.12 in 10.0 mi SE 5.8 mph - N/A   Clear
2:35 PM 33.8 °F 28.6 °F 26.6 °F 75% 30.12 in 10.0 mi SSE 5.8 mph - N/A   Clear
2:55 PM 33.8 °F 28.6 °F 26.6 °F 75% 30.12 in 10.0 mi SSE 5.8 mph - N/A   Clear
3:15 PM 33.8 °F 28.6 °F 26.6 °F 75% 30.11 in 10.0 mi SSE 5.8 mph - N/A   Clear
3:35 PM 35.6 °F 30.7 °F 24.8 °F 65% 30.11 in 10.0 mi SSE 5.8 mph - N/A   Clear
3:55 PM 35.6 °F 29.9 °F 26.6 °F 70% 30.12 in 10.0 mi SSE 6.9 mph - N/A   Clear
4:15 PM 35.6 °F - 26.6 °F 70% 30.12 in 10.0 mi Calm Calm - N/A   Clear
4:35 PM 35.6 °F 32.8 °F 21.2 °F 56% 30.12 in 10.0 mi West 3.5 mph - N/A   Clear
4:55 PM 32.0 °F 23.6 °F 23.0 °F 69% 30.12 in 10.0 mi WNW 10.4 mph - N/A   Clear
5:15 PM 32.0 °F 23.6 °F 23.0 °F 69% 30.13 in 10.0 mi WNW 10.4 mph - N/A   Clear
5:35 PM 32.0 °F 24.2 °F 21.2 °F 64% 30.13 in 10.0 mi NW 9.2 mph - N/A   Clear
5:55 PM 33.8 °F 28.6 °F 19.4 °F 56% 30.13 in 10.0 mi NW 5.8 mph - N/A   Clear
6:15 PM 35.6 °F 29.2 °F 10.4 °F 35% 30.13 in 10.0 mi NW 8.1 mph - N/A   Scattered Clouds
6:35 PM 33.8 °F 25.8 °F 17.6 °F 52% 30.14 in 10.0 mi WNW 10.4 mph - N/A   Scattered Clouds
6:55 PM 32.0 °F 23.0 °F 21.2 °F 64% 30.13 in 10.0 mi NW 11.5 mph - N/A   Scattered Clouds
7:15 PM 33.8 °F 24.8 °F 23.0 °F 65% 30.13 in 10.0 mi NW 12.7 mph - N/A   Mostly Cloudy
7:35 PM 33.8 °F 24.8 °F 23.0 °F 65% 30.13 in 10.0 mi NW 12.7 mph - N/A   Overcast
7:55 PM 32.0 °F 21.2 °F 23.0 °F 69% 30.14 in 10.0 mi NW 16.1 mph - N/A   Scattered Clouds
8:15 PM 32.0 °F 20.5 °F 24.8 °F 75% 30.14 in 10.0 mi NW 18.4 mph - N/A   Clear
8:35 PM 32.0 °F 20.8 °F 24.8 °F 75% 30.15 in 10.0 mi WNW 17.3 mph - N/A   Clear
8:55 PM 32.0 °F 19.8 °F 26.6 °F 80% 30.15 in 10.0 mi NW 20.7 mph - N/A   Scattered Clouds
9:15 PM 32.0 °F 19.5 °F 26.6 °F 80% 30.16 in 10.0 mi WNW 21.9 mph - N/A   Scattered Clouds
9:35 PM 32.0 °F 19.2 °F 26.6 °F 80% 30.16 in 10.0 mi WNW 23.0 mph - N/A   Scattered Clouds
9:55 PM 32.0 °F 19.5 °F 26.6 °F 80% 30.16 in 10.0 mi NW 21.9 mph - N/A   Mostly Cloudy
10:15 PM 32.0 °F 19.5 °F 26.6 °F 80% 30.16 in 10.0 mi NW 21.9 mph - N/A   Scattered Clouds
10:35 PM 32.0 °F 18.9 °F 26.6 °F 80% 30.16 in 10.0 mi WNW 24.2 mph - N/A   Mostly Cloudy
10:55 PM 30.2 °F 16.8 °F 28.4 °F 93% 30.17 in 10.0 mi NW 23.0 mph - N/A   Overcast
11:15 PM 30.2 °F 17.1 °F 28.4 °F 93% 30.17 in 10.0 mi WNW 21.9 mph - N/A   Overcast
11:35 PM 30.2 °F 17.4 °F 28.4 °F 93% 30.17 in 10.0 mi NW 20.7 mph - N/A   Overcast
11:55 PM 30.2 °F 17.8 °F 28.4 °F 93% 30.17 in 10.0 mi NW 19.6 mph - N/A   Overcast